Reflectivity
-20 -0 -20 -20 -20 8 -17 -20 -20 -1 -20 -2 16 10 14 -1 -9 -20 -20 -20 -20 -20 -20 -3 -20 -4 5 -16 -20 -17 1 -8 1 10 -20 -20 -20 -20 -20 -20 -20 -11 -20
-20 7 -20 -20 -20 -20 -20 -20 -20 -20 2 6 5 -18 -20 -20 -20 -20 -20 -20 -20 -20 -20 -20 -20 -20 -20 -20 -20 -20 -20 -20 -20 -20 -19 -15 -7 -20 -1 -20 -20 2 -20
3 2 -20 -20 -20 -20 -20 -20 -15 -17 -20 -20 -20 -20 -20 -20 -20 -20 -20 -20 -20 -20 -20 -20 -20 -20 -20 -20 -20 -20 -20 -20 -20 -20 -20 0 12 -16 11 13 -20 -13 2
-15 -20 -20 -20 -20 -20 -20 10 -7 -20 -20 -20 -20 -20 -20 -20 -20 -20 -20 -20 -20 -20 -20 -20 -20 -20 -20 -20 -20 -20 -20 -20 -20 -20 -20 -20 -20 -20 -11 -19 3 10 15
-20 -20 -20 -20 -20 -11 12 -19 -20 -20 -20 -20 -20 -20 -20 -20 -20 -20 -20 -20 -20 -20 -20 -20 -20 -20 -20 -20 -20 -20 -20 -20 -20 -20 -20 -20 -20 -20 -20 -20 -20 -20 -20
-20 -20 -20 -20 -14 11 -8 -20 -20 -20 -20 -20 -20 -20 -20 -20 -20 -20 -20 -20 -20 -20 -20 -20 -20 -20 -20 -20 -20 -20 -20 -20 -20 -20 -20 -20 -20 -20 -20 -20 -20 -20 -20
-20 -20 -5 -8 13 -17 -20 -20 -20 -20 -20 -20 -20 -20 -20 -20 -20 -20 -20 -20 -20 -20 -20 -20 -20 -20 -20 -20 -20 -20 -20 -20 -20 -20 -20 -20 -20 -20 -20 -20 -20 -20 -20
-20 -2 3 9 -11 -20 -20 -20 -20 -20 -20 -20 -20 -20 -20 -20 -20 -20 -20 -20 -20 -20 -20 -20 -20 -20 -20 -20 -20 -20 -20 -20 -20 -20 -20 -20 -20 -20 -20 8 12 -2 10
-0 11 14 8 -20 -20 -20 -20 -20 -20 -20 -20 -20 -20 -20 -20 -20 -20 -20 -20 -20 -20 -20 -20 -20 -20 -20 -20 -20 -20 -20 -20 -20 -20 -20 -20 -20 5 11 -18 -20 -18 3
12 16 19 -20 -20 -20 -20 -20 -20 -20 -20 -20 -20 -20 -20 -20 -20 -20 -20 -20 -20 -20 -20 -20 -20 -20 -20 -20 -20 -20 -20 -20 -20 -20 -20 -20 -20 1 -20 -20 -20 -20 4
13 15 -20 -20 -20 -20 -20 -20 -20 -20 -20 -20 -20 -20 -20 -20 -20 -20 -20 -20 -20 -20 -20 -20 -20 -20 -20 -20 -20 -20 -20 -20 -20 -20 -20 -20 -20 -20 9 -5 -20 -20 -17
4 14 -20 -20 -20 -20 -20 -20 -20 -20 -20 -20 -20 -20 -20 -20 -20 -20 -20 -20 -20 -20 -20 -20 -20 -20 -20 -20 -20 -20 -20 -20 -20 -20 -20 -20 -20 -4 4 -19 -20 -16 -6
-19 -20 -20 -20 -20 -20 -20 -20 -20 -20 -20 -20 -20 -20 -20 -20 -20 -20 -20 -20 -20 -20 -20 -20 -20 -20 -20 -20 -20 -20 -20 -20 -20 -20 -20 -20 -20 10 10 -2 -20 -20 -20
-19 -20 -20 -20 -20 -20 -20 -20 -20 -20 -20 -20 -20 -20 -20 -20 -20 -20 -20 -20 -20 -20 -20 -20 -20 -20 -20 -20 -20 -20 -20 -20 -20 -20 -20 -20 -20 12 7 -19 -20 -20 -20
1 -20 -20 -20 -20 -20 -20 -20 -20 -20 -20 -20 -20 -20 -20 -20 -20 -20 -20 -20 -20 -20 -20 -20 -20 -20 -20 -20 -20 -20 -20 -20 -20 -20 -20 -20 -20 -20 -20 -20 -20 -20 -20
-8 -20 -20 -20 -20 -20 -20 -20 -20 -20 -20 -20 -20 -20 -20 -20 -20 -20 -20 -20 -20 -20 -20 -20 -20 -20 -20 -20 -20 -20 -20 -20 -20 -20 -20 -20 -20 -20 -20 -20 -20 -20 -0
-8 -20 -20 -20 -20 -20 -20 -20 -20 -20 -20 -20 -20 -20 -20 -20 -20 -20 -20 -20 -20 -20 -20 -20 -20 -20 -20 -20 -20 -20 -20 -20 -20 -20 -20 -20 -20 -20 -20 -20 -20 -20 -20
-12 -20 -20 -20 -20 -20 -20 -20 -20 -20 -20 -20 -20 -20 -20 -20 -20 -20 -20 -20 -20 -20 -20 -20 -20 -20 -20 -20 -20 -20 -20 -20 -20 -20 -20 -20 -20 -20 -20 -20 -20 -20 -20
8 -16 7 -20 -20 -20 -20 -20 -20 -20 -20 -20 -20 -20 -20 -20 -20 -20 -20 -20 -20 -20 -20 -20 -20 -20 -20 -20 -20 -20 -20 -20 -20 -20 -20 -20 -20 -20 -20 -20 -20 -20 -20
27 23 19 -17 -20 -20 -20 -20 -20 -20 -20 -20 -20 -20 -20 -20 -20 -20 -20 -20 -20 -20 -20 -20 -20 -20 -20 -20 -20 -20 -20 -20 -20 -20 -20 -20 -20 -20 -20 -20 -20 -20 -20
29 27 24 15 -1 -20 -20 -20 -20 -20 -20 -20 -20 -20 -20 -20 -20 -20 -20 -20 -20 -20 -20 -20 -20 -20 -20 -20 -20 -20 -20 -20 -20 -20 -20 -20 -20 -20 -20 -20 -20 -20 -20
0 27 23 21 20 7 -20 -20 -20 -20 -20 -20 -20 -20 -20 -20 -20 -20 -20 -20 -20 -20 -20 -20 -20 -20 -20 -20 -20 -20 -20 -20 -20 -20 -20 -20 -20 -20 -20 -20 -20 -20 -20
-5 26 25 24 7 21 18 -20 -20 -20 -20 -20 -20 -20 -20 -20 -20 -20 -20 -20 -20 -20 -20 -20 -20 -20 -20 -20 -20 -20 -20 -20 -20 -20 -20 -20 -20 -20 -20 -20 -20 -20 -20
1 -20 16 21 29 19 -12 -20 -20 -20 -20 -20 -20 -20 -20 -20 -20 -20 -20 -20 -20 -20 -20 -20 -20 -20 -20 -20 -20 -20 -20 -20 -20 -20 -20 -20 -20 -20 -20 -20 -20 -20 -20
-12 13 15 8 11 -3 -20 -20 -20 -20 -20 -20 -20 -20 -20 -20 -20 -20 -20 -20 -20 -20 -20 -20 -20 -20 -20 -20 -20 -20 -20 -20 -20 -20 -20 -20 -20 -20 -20 -20 -20 -20 -20
25 21 -3 -12 -1 -20 -20 -20 -20 -20 -20 -20 -20 -20 -20 -20 -20 -20 -20 -20 -20 -20 -20 -20 -20 -20 -20 -20 -20 -20 -20 -20 -20 -20 -20 -20 -20 -20 -20 -20 -20 -20 -20
Wind_Speed
13 16 16 16 14 11 12 11 10 9 9 8 9 12 14 14 14 14 13 13 13 12 12 12 12 12 12 13 13 12 13 13 11 6 2 4 5 6 7 6 6 8 1
17 16 15 16 14 13 12 11 10 9 12 12 13 13 13 13 13 13 13 12 12 11 11 10 11 11 11 11 11 11 11 12 12 11 8 8 6 3 7 7 7 9 7
17 17 16 14 14 14 12 11 10 13 12 12 12 13 13 13 13 12 12 12 11 11 11 11 11 11 11 11 10 10 10 10 11 10 10 6 7 4 9 8 8 12 9
16 15 16 15 15 13 12 12 13 13 12 12 12 12 12 12 12 12 13 13 12 12 11 11 10 10 11 11 11 10 10 10 10 10 6 7 7 5 10 12 12 12 11
15 14 15 14 14 13 12 14 14 13 12 11 11 11 11 12 11 12 12 12 11 11 11 11 11 11 11 11 11 10 11 11 10 9 6 6 7 6 12 12 12 12 12
15 14 14 14 14 13 15 14 13 12 11 11 11 10 11 11 11 11 11 11 11 11 11 11 11 11 11 10 10 10 11 11 14 7 6 6 6 10 12 12 12 12 12
15 15 14 13 14 16 15 14 13 12 12 11 11 10 11 11 11 12 11 11 11 11 11 11 11 11 11 10 10 10 10 10 8 6 6 6 7 11 11 11 13 11 12
15 14 14 13 15 15 14 13 13 12 12 12 12 12 12 12 12 11 11 11 11 11 11 12 12 12 12 11 10 10 10 10 6 6 6 5 8 10 8 10 12 11 9
15 13 13 14 13 13 13 12 13 12 12 12 12 13 12 12 11 11 12 11 11 11 11 12 12 12 12 10 10 10 10 8 7 5 6 4 12 8 10 12 13 13 12
13 12 13 12 11 11 11 12 12 12 12 12 11 11 10 11 9 10 8 10 11 11 11 11 12 12 12 10 10 10 10 10 7 5 4 7 12 8 9 11 11 11 12
10 12 11 11 10 10 10 10 12 11 10 10 10 6 5 6 7 8 9 9 11 10 10 10 11 11 11 3 5 9 11 4 6 5 4 11 11 9 11 10 12 12 11
11 11 11 10 10 10 7 8 8 6 5 5 6 6 5 6 7 5 5 7 7 7 5 7 8 8 7 7 5 4 4 6 4 4 5 11 10 8 9 11 11 12 12
12 10 11 10 9 9 7 6 4 3 4 4 6 5 6 4 3 3 3 4 5 5 5 6 7 6 9 7 6 5 5 5 4 4 8 10 9 8 9 11 12 12 12
11 13 11 10 9 8 6 5 5 4 4 4 4 5 4 3 3 4 4 5 5 5 7 7 5 8 9 9 7 6 6 4 3 3 8 11 9 10 11 13 13 12 11
14 13 11 10 8 7 6 5 5 5 4 5 4 4 3 3 4 3 4 5 5 5 5 6 7 7 8 8 7 6 6 5 5 2 4 10 10 11 11 12 13 13 11
14 13 12 11 9 8 6 6 6 5 5 4 4 4 4 3 3 3 4 4 5 5 5 5 6 6 7 6 7 6 5 4 4 3 3 7 9 9 9 11 12 15 12
13 12 11 10 9 8 8 5 5 5 4 4 4 4 4 3 3 4 4 4 4 4 6 5 6 5 6 6 6 5 4 5 3 4 3 3 4 6 9 9 11 11 13
14 13 12 10 10 8 7 5 5 5 4 4 3 3 3 3 3 3 3 4 4 4 4 4 5 6 6 6 5 4 3 3 3 3 2 2 3 4 2 5 8 8 10
9 10 7 10 11 8 7 4 5 5 3 3 3 3 3 2 1 3 3 3 4 3 4 5 5 5 5 6 5 3 2 2 1 2 3 3 2 4 5 2 3 5 8
6 6 5 7 9 9 6 5 4 4 3 3 3 3 3 1 1 2 2 3 3 3 3 4 6 5 4 6 5 4 3 2 2 2 3 2 1 2 4 6 7 4 1
9 8 8 6 8 7 6 5 4 4 4 3 3 3 3 2 1 1 2 2 3 4 4 5 5 6 5 7 5 4 3 4 5 4 3 3 2 3 4 5 5 5 4
15 10 10 9 9 7 5 3 1 4 2 3 3 4 4 2 1 2 2 3 4 4 5 5 6 5 4 5 5 4 4 2 3 5 3 4 5 4 5 7 8 7 8
14 13 11 10 8 7 5 5 4 4 3 3 4 3 3 2 2 2 4 4 4 4 4 5 5 6 6 4 5 4 4 3 9 1 5 4 5 7 6 9 8 9 8
8 9 10 8 7 6 6 5 5 3 4 2 3 2 3 3 4 4 4 4 4 4 5 5 4 5 5 6 5 1 5 6 5 6 1 4 6 7 10 9 8 8 7
7 7 7 7 5 7 6 4 3 3 3 3 3 4 4 3 4 4 5 5 4 4 5 5 6 5 4 5 4 5 5 4 6 6 10 5 8 7 8 8 10 7 5
5 5 7 8 7 6 5 5 5 5 5 4 4 3 3 2 2 5 4 5 4 4 5 4 5 6 6 6 5 5 6 5 7 7 9 12 12 8 9 8 7 7 7
Wind_Direction
152 136 140 139 140 137 112 108 97 88 78 74 77 74 74 67 59 56 53 48 41 33 27 20 22 21 21 20 16 8 22 28 15 356 348 334 333 333 322 312 300 276 7
144 139 140 139 139 128 121 111 100 84 79 67 65 65 67 67 65 59 53 45 40 33 31 26 21 18 16 13 10 3 7 15 8 4 346 247 208 341 322 318 298 309 287
136 136 142 136 134 130 124 114 100 85 78 74 72 70 67 66 61 57 52 46 39 34 27 22 19 19 16 14 9 6 359 2 358 347 318 312 320 18 318 317 297 287 272
137 142 140 137 134 131 124 110 95 88 84 79 73 70 68 65 63 56 51 45 41 38 36 30 26 23 19 13 9 11 10 2 356 330 306 322 316 327 329 322 321 315 315
138 141 127 137 135 133 120 105 98 92 86 82 78 75 73 67 60 58 51 43 37 35 33 28 24 22 20 13 10 7 4 356 338 297 334 325 320 351 326 319 311 312 315
139 137 136 138 138 124 110 106 101 97 91 87 84 80 73 64 62 54 54 45 43 38 30 26 22 21 16 11 9 6 2 354 310 353 346 1 327 348 326 324 319 311 306
142 138 146 143 130 115 111 108 105 99 92 87 85 83 75 68 63 59 54 48 40 36 29 24 22 15 10 6 6 2 359 345 333 357 352 350 358 332 326 327 331 318 306
142 145 139 127 114 114 112 109 106 97 93 89 87 84 78 71 66 61 56 47 40 37 32 26 19 13 7 4 5 2 359 345 317 2 355 354 10 330 334 16 13 10 18
145 149 140 132 114 102 102 102 100 94 91 89 89 86 82 75 71 66 57 44 44 39 34 24 17 13 7 4 4 1 353 337 327 11 343 357 353 349 31 20 12 17 23
148 146 139 132 129 124 117 96 96 95 92 92 88 89 94 94 81 70 57 47 46 40 30 22 16 12 4 5 4 355 337 276 14 9 16 18 336 4 23 18 12 11 15
155 146 138 134 129 126 120 111 108 100 101 111 106 92 128 80 75 72 56 47 44 33 22 15 10 7 350 27 7 344 299 7 3 6 16 358 331 13 32 26 20 15 10
143 148 143 139 138 131 124 124 109 106 87 95 101 98 90 78 66 66 71 51 50 13 12 1 5 358 355 2 359 274 1 349 359 7 36 355 347 21 40 38 29 20 13
150 153 150 144 145 138 135 130 122 115 114 100 94 98 92 89 80 56 46 34 24 5 12 4 6 14 6 5 359 352 353 349 358 9 43 2 354 29 42 36 23 13 3
160 158 152 147 148 139 136 129 127 127 121 118 107 105 107 94 72 49 38 30 24 11 6 8 1 4 4 8 5 2 9 5 4 17 74 15 25 35 33 28 18 7 358
167 162 157 152 150 142 137 134 128 122 126 121 119 104 91 84 63 42 37 33 22 4 7 1 2 2 4 3 12 14 23 19 19 28 81 38 46 41 31 24 17 11 3
171 167 159 159 152 143 143 149 130 128 133 133 125 113 96 71 57 40 38 27 21 9 360 355 1 0 2 6 18 28 20 19 22 42 47 86 48 45 34 24 20 15 2
168 161 167 152 147 147 143 149 135 132 151 141 131 131 110 79 50 37 32 22 20 8 350 353 5 360 2 9 17 14 14 25 30 43 41 26 122 86 30 18 8 7 10
160 170 167 150 152 153 146 157 145 143 148 138 136 137 118 92 24 21 21 29 9 357 355 360 3 350 4 10 354 8 5 20 20 18 7 349 356 341 141 26 344 346 350
158 155 153 159 147 150 146 146 133 132 146 139 149 143 133 136 40 350 8 14 354 349 2 358 360 353 356 359 335 323 344 335 326 283 314 304 337 312 328 50 318 312 337
153 135 142 160 152 149 149 150 149 150 146 155 153 147 139 127 22 334 336 341 337 333 359 356 349 354 346 345 318 301 265 265 261 291 311 276 310 326 332 325 322 326 333
167 167 164 158 163 162 158 165 179 174 155 165 151 133 116 109 100 315 329 329 336 337 351 347 338 342 346 349 311 333 235 243 237 269 273 243 232 279 305 308 309 311 304
163 174 164 179 165 192 173 159 139 140 136 134 135 118 99 97 71 345 353 360 350 334 349 352 355 341 338 358 339 302 330 211 229 303 265 266 271 287 292 316 316 305 303
163 172 184 172 161 188 154 129 121 107 123 157 143 143 87 78 78 36 19 1 360 346 349 344 350 346 334 340 345 319 319 332 331 113 292 290 285 305 284 312 305 305 300
152 149 144 151 167 178 172 178 186 172 178 123 128 109 97 65 60 40 15 2 359 350 349 347 340 332 319 325 328 289 296 308 314 316 270 271 315 303 300 306 302 309 300
137 149 137 140 153 171 175 180 153 141 123 122 124 128 90 71 55 37 7 7 4 353 352 341 330 323 311 303 309 311 296 280 269 284 302 315 301 299 305 304 306 304 297
146 136 128 136 157 146 157 137 167 163 148 138 118 117 88 71 62 33 13 3 356 350 347 337 325 311 311 301 296 290 284 293 298 287 286 302 309 305 309 298 291 291 285